Probability
3 3 2 1 0 0 0 0 0 0 0 0 0 0 0 0 0 0 0 0 0 0 0 0 0 0 0 0 0 0 0 0 0 0 0 0 0 0
3 3 3 2 1 0 0 0 0 0 0 0 0 0 0 0 0 0 0 0 0 0 0 0 0 0 0 0 0 0 0 0 0 0 0 0 0 0
3 3 3 4 3 1 1 0 0 0 0 0 0 0 0 0 0 0 0 0 0 0 0 0 0 0 0 0 0 0 0 0 0 0 0 0 0 0
3 3 4 4 4 3 1 0 0 0 0 0 0 0 0 0 0 0 0 0 0 0 0 0 0 0 0 0 0 0 0 0 0 0 0 0 0 0
2 2 3 4 4 3 2 1 0 0 0 0 0 0 0 0 0 0 0 0 0 0 0 0 0 0 0 0 0 0 0 0 0 0 0 0 0 0
1 1 1 2 2 2 2 2 1 0 0 0 0 0 0 0 0 0 0 0 0 0 0 0 0 0 0 0 0 0 0 0 0 0 0 0 0 0
0 0 0 1 1 1 2 2 1 0 0 0 0 0 0 1 0 0 0 0 0 0 0 0 0 0 0 0 0 0 0 0 0 0 0 0 0 0
0 0 0 0 0 0 1 1 0 0 0 0 0 0 0 0 0 0 0 0 0 0 0 0 0 0 0 0 0 0 0 0 0 0 0 0 0 0
0 0 0 0 0 0 0 0 0 0 0 0 0 0 0 0 0 0 0 0 0 0 0 0 0 0 0 0 0 0 0 0 0 0 0 0 0 0
0 0 0 0 0 0 0 0 0 0 0 0 0 0 0 0 0 0 0 0 0 0 0 0 0 0 0 0 0 0 0 0 0 0 0 0 0 0
0 0 0 0 0 0 0 0 0 0 0 0 0 0 0 0 0 0 0 0 0 0 0 0 0 0 0 0 0 0 0 0 0 0 0 0 0 0
0 0 0 0 0 0 0 0 0 0 0 0 0 0 0 0 0 0 0 0 0 0 0 0 0 0 0 0 0 0 0 0 0 0 0 0 0 0
0 0 0 0 0 0 0 0 0 0 0 0 0 0 0 0 0 0 0 0 0 0 0 0 0 0 0 0 0 0 0 0 0 0 0 0 0 0
0 0 0 0 0 0 0 0 0 0 0 0 0 0 0 0 0 0 0 0 0 0 0 0 0 0 0 0 0 0 0 0 0 0 0 0 0 0
0 0 0 0 0 0 0 0 0 0 0 0 0 0 0 0 0 0 0 0 0 0 0 0 0 0 0 0 0 0 0 0 0 0 0 0 0 0
0 0 0 0 0 0 0 0 0 0 0 0 0 0 0 0 0 0 0 0 0 0 0 0 0 0 0 0 0 0 0 0 0 0 0 0 0 0
0 0 0 0 0 0 0 0 0 0 0 0 0 0 0 0 0 0 0 0 0 0 0 0 0 0 0 0 0 0 0 0 0 0 0 0 0 0
0 0 0 0 0 0 0 0 0 0 0 0 0 0 0 0 0 0 0 0 0 0 0 0 0 0 0 0 0 0 0 0 0 0 0 0 0 0
0 0 0 0 0 0 0 0 0 0 0 0 0 0 0 0 0 0 0 0 0 0 0 0 0 0 0 0 0 0 0 0 0 0 0 0 0 0
0 0 0 0 0 0 0 0 0 0 0 0 0 0 0 0 0 0 0 0 0 0 0 0 0 0 0 0 0 0 0 0 0 0 0 0 0 0
0 0 0 0 0 0 0 0 0 0 0 0 0 0 0 0 0 0 0 0 0 0 0 0 0 0 0 0 0 0 0 0 0 0 0 0 0 0
0 0 0 0 0 0 0 0 0 0 0 0 0 0 0 0 0 0 0 0 0 0 0 0 0 0 0 0 0 0 0 0 0 0 0 0 0 0
0 0 0 0 0 0 0 0 0 0 0 0 0 0 0 0 0 0 0 0 0 0 0 0 0 0 0 0 0 0 0 0 0 0 0 0 0 0
Wind_Speed
5 5 4 4 3 3 3 4 4 2 3 3 2 3 3 3 6 5 5 9 11 11 11 11 11 11 11 11 10 10 10 10 9 9 10 10 10 10
4 5 4 3 3 3 3 3 3 4 4 3 3 3 3 4 5 5 5 8 10 11 11 11 11 11 11 11 10 10 10 10 10 10 10 10 10 11
5 5 6 5 4 3 3 3 3 3 4 4 2 2 3 4 3 3 4 4 5 10 10 11 11 11 11 11 11 11 11 11 11 11 10 10 10 10
6 5 6 5 5 4 3 4 4 4 4 4 3 2 3 4 4 4 4 5 4 8 11 11 11 11 11 11 11 11 11 11 11 11 10 10 11 11
5 6 6 5 5 4 4 4 3 4 3 3 3 2 2 2 2 4 4 3 4 6 9 11 12 12 12 11 11 11 11 11 11 11 11 11 11 11
4 5 5 6 6 6 5 5 4 3 3 3 3 2 2 2 2 2 2 2 3 4 5 6 8 11 11 11 12 11 11 11 11 11 11 11 11 11
3 3 4 6 7 6 5 5 4 3 3 3 3 2 2 2 3 3 3 3 3 3 2 3 3 4 6 9 10 11 11 11 11 11 11 11 11 11
4 4 5 5 6 7 7 7 7 6 5 5 4 4 5 4 3 3 3 2 3 2 2 3 3 4 4 5 9 11 11 11 11 12 12 12 11 12
4 4 4 4 4 4 5 5 7 9 9 7 6 7 6 6 4 4 4 4 5 4 2 3 3 4 4 6 10 11 11 12 12 11 11 12 11 11
4 5 4 4 4 4 3 3 4 5 7 6 7 8 7 6 7 6 6 4 3 3 3 4 3 4 4 4 8 11 12 12 11 11 11 11 11 11
3 3 4 4 6 6 4 4 4 5 6 7 7 7 8 9 7 3 3 3 4 4 3 3 3 3 3 4 5 9 11 11 11 10 10 10 10 9
3 3 5 5 6 6 4 5 5 5 4 3 4 5 5 6 8 7 6 5 4 4 4 4 3 2 2 3 3 3 5 8 10 10 10 10 9 5
3 3 4 7 7 8 7 6 8 6 4 4 4 4 4 4 5 5 6 6 5 5 4 4 3 3 3 2 2 3 3 3 3 4 7 9 9 8
4 4 4 8 9 9 7 7 9 6 3 3 3 4 4 4 4 5 6 7 7 7 6 5 4 4 3 3 3 2 2 3 3 3 3 5 6 9
4 6 7 9 8 6 8 8 6 4 3 4 5 5 5 5 4 3 4 4 5 6 6 5 5 4 4 4 3 3 2 3 3 3 3 4 4 4
4 5 7 7 5 5 5 4 4 4 4 5 5 4 3 3 3 3 3 3 2 3 4 5 6 6 4 4 4 4 3 3 3 3 3 3 3 4
2 1 1 2 2 2 2 3 3 3 4 4 4 3 4 4 4 3 3 2 3 3 3 2 3 3 5 4 4 4 4 3 4 3 3 2 3 4
2 2 3 3 3 4 3 3 3 3 4 4 3 4 4 4 3 3 2 3 4 4 3 3 2 1 0 2 4 5 4 3 3 3 3 3 3 3
2 3 3 4 4 4 4 4 4 3 3 3 3 3 3 3 3 3 3 2 3 3 3 3 3 3 3 3 3 4 4 3 2 2 2 3 3 4
3 3 4 4 4 4 4 4 3 2 2 2 2 3 3 3 3 3 3 4 3 3 3 3 3 4 5 4 3 2 3 4 4 3 2 2 2 2
3 4 4 4 4 4 4 3 3 3 3 3 3 3 3 3 3 3 3 4 4 3 4 4 4 4 2 2 1 1 2 3 4 4 4 2 2 1
4 4 4 4 3 3 3 3 3 3 3 3 3 3 3 3 3 3 3 3 3 3 3 2 1 1 2 3 3 2 2 1 1 1 2 4 4 4
4 4 3 3 3 3 3 3 3 3 3 3 3 3 3 2 3 3 3 3 2 2 2 2 1 1 2 2 3 2 3 2 1 0 1 3 4 4
Wind_Direction
217 218 219 220 208 204 189 174 174 215 250 252 246 234 224 215 217 214 217 218 215 216 218 221 224 223 222 225 224 224 228 230 233 239 242 241 241 241
215 218 224 221 214 208 199 193 186 191 227 239 234 234 227 230 221 212 219 221 219 217 218 220 222 225 226 225 226 226 227 229 231 235 240 243 242 242
224 218 228 221 212 209 200 200 202 190 223 252 238 237 221 232 236 227 224 219 220 221 220 221 222 226 231 228 227 227 228 230 232 236 238 241 245 246
226 223 231 223 216 211 203 211 216 205 204 238 250 238 234 229 227 225 231 224 220 223 222 224 225 227 230 230 231 229 228 229 231 234 235 239 242 244
225 223 230 220 219 215 208 212 219 219 204 212 238 231 237 239 231 239 236 234 234 231 225 226 228 229 229 230 232 231 229 230 231 231 231 235 239 240
228 227 227 217 215 213 214 214 211 213 212 215 233 241 245 246 205 220 246 242 241 242 237 231 230 229 230 231 231 230 230 232 232 231 231 232 235 234
235 231 233 223 219 212 213 208 201 202 206 214 229 237 246 234 225 218 226 243 252 233 234 243 232 231 231 233 231 231 232 233 231 231 232 232 233 229
230 238 245 234 225 220 219 209 199 203 209 210 219 224 234 231 224 216 209 217 256 235 196 245 218 233 234 226 230 230 232 231 230 230 229 230 231 226
226 231 242 234 225 221 229 228 227 227 219 207 213 224 223 218 207 216 216 212 232 225 187 244 229 235 241 241 234 231 231 231 230 230 229 228 228 225
227 220 221 236 232 212 213 226 240 244 236 223 223 229 226 221 207 209 216 228 250 239 192 228 238 238 248 246 237 232 231 232 232 232 229 226 225 225
243 225 214 223 231 213 199 219 247 261 251 238 234 236 236 236 221 197 200 199 237 244 205 202 231 242 249 251 247 234 229 229 230 230 228 227 225 221
258 250 235 228 232 219 205 214 237 249 251 264 261 256 247 243 228 208 202 204 214 239 218 193 214 198 258 254 244 232 227 232 230 229 227 225 219 206
243 249 247 239 239 235 223 218 229 234 238 244 255 261 259 246 233 219 207 204 210 230 214 182 200 195 203 249 262 233 217 224 223 231 228 226 217 198
239 243 248 248 246 242 234 236 241 239 231 240 249 253 252 247 239 229 221 218 216 222 216 188 197 201 198 222 248 248 229 222 214 221 221 220 221 215
243 245 250 251 251 248 246 246 239 224 225 238 245 248 244 240 238 241 237 227 231 232 226 205 202 206 196 210 221 220 230 237 211 210 212 208 205 194
258 263 261 254 247 247 254 250 232 223 221 234 243 248 248 242 236 229 228 221 228 257 250 220 207 200 209 215 212 225 214 214 210 208 205 212 208 201
251 269 281 288 276 270 262 253 244 233 232 238 238 246 249 247 244 230 218 211 213 230 251 249 223 211 209 201 210 218 217 222 218 207 195 218 231 215
195 232 246 248 246 246 246 252 247 240 237 233 232 235 240 239 241 236 224 216 218 224 227 220 191 166 304 277 218 210 212 217 215 203 190 202 241 235
201 238 242 242 242 239 236 239 244 246 235 223 227 231 235 234 228 235 236 229 226 225 223 208 189 184 205 240 261 212 197 200 191 200 204 204 227 236
227 240 245 245 242 240 238 238 244 247 241 229 228 234 235 236 232 234 231 228 224 221 223 219 206 199 206 214 223 249 209 189 187 202 212 216 244 259
248 249 249 248 246 240 236 230 226 228 231 225 225 232 236 237 236 233 234 234 224 217 218 228 231 216 183 141 167 239 256 221 200 194 185 184 220 241
251 254 254 252 246 239 233 228 227 228 227 225 229 233 236 230 230 231 226 225 225 220 223 227 203 160 161 192 212 217 236 271 250 213 206 195 190 203
254 254 253 250 242 238 235 232 227 230 227 224 228 233 234 236 234 227 225 219 213 213 209 201 184 168 194 201 203 204 204 211 203 144 305 280 225 218